Tracking 19176 objects as of 28-May-2018
HD Live streaming from Space Station
objects crossing your sky now

SECOR 3

Track SECOR 3 now!
10-day predictions
SECOR 3 is classified as:


NORAD ID: 1208
Int'l Code: 1965-016E
Perigee: 901.3 km
Apogee: 931.4 km
Inclination: 70.1 °
Period: 103.2 minutes
Semi major axis: 7287 km
RCS: 0.2205 m2 (medium)
Launch date: March 9, 1965
Source: United States (US)
Launch site: AIR FORCE WESTERN TEST RANGE (AFWTR)
aabbcc
Your satellite tracking list
Your tracking list is empty




NASA's NSSDC Master Catalog

Two Line Element Set (TLE):
1  1208U 65016E   18147.91780648 -.00000035 +00000-0 +12663-4 0  9994
2  1208 070.0792 327.2231 0020625 346.6433 120.6590 13.95560140708666
Source of the keplerian elements: AFSPC